STARLINK-35761, 66961

Orbit data source: Space-Track

STARLINK-35761, 66961 is a payload satellite owned by SpaceX/Seattle (US) in LEO that was launched on Mon, 08 Dec 2025 UTC via an FALCON 9 launch vehicle from the Air Force Eastern Test Range (AFETR). Payload-class satellites include a variety of spacecraft equipped with specific instruments for various scientific and technological missions. These include communications satellites like Starlink; space stations such as the ISS; scientific satellites like the Hubble; Earth observation satellites from companies like Planet Labs, Umbra, and HawkEye 360; GPS; miniature CubeSats for education and research; and military/defense satellites.

Loading next visibility...
Identifier
66961, 2025-288C
Orbit
LEO
Country
Flag of USUS
Related business
Manufacturer
SpaceX/Seattle
Mission
Operational Commercial Communications
Bus & Motor
STARLINK V2MO, Unknown motor
Mass
575 kg wet, ~530 kg dry
Launch date (UTC)
2025-12-08 (5 months ago)
Launch vehicle
FALCON 9
Launch site
Air Force Eastern Test Range (AFETR)
Object type
Payload
Rocket body
Debris
Shape & HBR
Box + 2 Pan, 17.7 m
Radar Cross Section
36.964 m²

Expand to show TLE details & history
Last TLE update: 9 hours ago

TLE from 9 hours ago
0 STARLINK-35761
1 66961U 25288C   26130.09934733  .00001297  00000-0  56649-4 0  9996
2 66961  42.9983  36.2623 0000425 278.3532  81.7271 15.27568500 24683
Epoch: 2026-05-10T02:23Z
TLE epoch observation values (Epoch: 2026-05-10T02:23:03.609Z)
Latitude
-0.00004°
Longitude
132.58993°
Altitude
482.817 km
Speed
7.626 km/s
True Right ascension
02h 25m 02s
True Declination
0° 00' 00"
Sunlit
Object was in daylight at epoch
Visualization orbit readout
Latitude
Unknown
Longitude
Unknown
Altitude
Unknown
Speed
Unknown
Apparent Right ascension
Unknown
Apparent Declination
Unknown
Sunlit
N/A
Visualization observer readout
Local Sidereal Time
19:49:15
Azimuth
Unknown
Elevation
Unknown
Doppler factor
Unknown
Orbital elements
Apogee altitude
485.321 km
Perigee altitude
484.737 km
Semi-major axis
6,863.166 km
Eccentricity
0.00004
Inclination
42.9983°
RAAN
36.2623°
Arg. of periapsis
278.3532°
True anomaly
81.73192°
Mean anomaly
81.7271°
Eccentric anomaly
81.72951°
Mean motion
3.8173 °/min
Orbital period
94.31 mins
BSTAR
0.000056649
Loading maneuver chart data...
Computing Atmospheric mass density...
Loading historical data...
Loading historical data...
Loading historical data...
Loading historical data...
Loading historical data...
Loading historical data...
Loading historical data...

Documentation

Showing up to 5 results
|